Renton, WA
on Sunday, November 18, 2012

Sunday
Previous Day Next Day
Daily Summary
 ActualAverage (KSEA)Record (KSEA)
Temperature
Mean Temperature °F 45°F  
Max Temperature 54°F 50°F 59°F (1965)
Min Temperature 45°F 40°F 29°F (2000)
Degree Days
Heating Degree Days 16 20  
Month to date heating degree days 328  
Since 1 July heating degree days 925  
Cooling Degree Days 0 0  
Month to date cooling degree days 0  
Year to date cooling degree days 189  
Moisture
Dew Point 42°F   
Average Humidity 77    
Maximum Humidity 86    
Minimum Humidity 64    
Precipitation
Precipitation 0.29 in 0.23 in 2.06 in (2003)
Month to date precipitation 3.88  
Year to date precipitation 29.45  
Snow
Snow 0.00 in in 9.40 in (1946)
Month to date snowfall  
Since 1 July snowfall  
Snow Depth in   
Wind
Wind Speed 5 mph   
Max Wind Speed 15 mph   
Max Gust Speed 26 mph   
Visibility 10 miles   
Events Rain   

Key: T is trace of precipitation, MM is missing value
Source: NWS Daily Summary
Time(PST)TemperatureDew PointHumidity Pressure Visibility Wind DirectionWind SpeedGust SpeedPrecipitationEvents Conditions
12:53 AM 45.0°F 39.9°F 82% 29.75 in 10.0 miles ESE 3.5 mph - 0.00 in   Mostly Cloudy
1:53 AM 46.0°F 39.0°F 76% 29.75 in 10.0 miles SSE 4.6 mph - N/A   Overcast
2:53 AM 46.0°F 39.9°F 79% 29.76 in 9.0 miles Calm Calm - 0.00 in Rain Light Rain
3:53 AM 46.0°F 39.9°F 79% 29.78 in 6.0 miles Calm Calm - 0.02 in Rain Light Rain
4:53 AM 45.0°F 41.0°F 86% 29.78 in 10.0 miles Calm Calm - 0.06 in   Overcast
5:53 AM 45.0°F 41.0°F 86% 29.76 in 10.0 miles ESE 3.5 mph - 0.00 in   Overcast
6:53 AM 46.0°F 39.9°F 79% 29.76 in 10.0 miles ESE 6.9 mph - N/A   Overcast
7:53 AM 46.0°F 41.0°F 83% 29.75 in 10.0 miles SSE 3.5 mph - 0.02 in Rain Light Rain
8:53 AM 46.0°F 42.1°F 86% 29.76 in 7.0 miles Calm Calm - 0.01 in Rain Light Rain
9:53 AM 46.9°F 43.0°F 86% 29.78 in 7.0 miles Calm Calm - 0.05 in Rain Light Rain
10:53 AM 48.0°F 42.1°F 80% 29.77 in 10.0 miles East 9.2 mph - 0.01 in   Overcast
11:53 AM 48.9°F 43.0°F 80% 29.74 in 10.0 miles East 6.9 mph - 0.00 in Rain Light Rain
12:53 PM 48.9°F 43.0°F 80% 29.72 in 10.0 miles East 5.8 mph - 0.00 in Rain Light Rain
1:53 PM 50.0°F 42.1°F 74% 29.70 in 10.0 miles East 8.1 mph - 0.00 in   Overcast
2:53 PM 48.9°F 42.1°F 77% 29.68 in 10.0 miles East 8.1 mph - 0.01 in Rain Light Rain
3:53 PM 48.0°F 42.1°F 80% 29.65 in 10.0 miles ESE 9.2 mph - 0.01 in Rain Light Rain
4:53 PM 48.9°F 41.0°F 74% 29.60 in 10.0 miles East 10.4 mph 17.3 mph 0.01 in Rain Light Rain
5:53 PM 50.0°F 41.0°F 71% 29.56 in 10.0 miles East 9.2 mph - 0.00 in Rain Light Rain
6:53 PM 50.0°F 43.0°F 77% 29.55 in 10.0 miles Variable 3.5 mph - 0.05 in Rain Light Rain
7:53 PM 53.1°F 41.0°F 64% 29.56 in 10.0 miles SSE 8.1 mph - 0.00 in   Overcast
8:53 PM 54.0°F 42.1°F 64% 29.58 in 10.0 miles SSE 10.4 mph 17.3 mph 0.00 in Rain Light Rain
9:53 PM 53.1°F 42.1°F 66% 29.59 in 10.0 miles SSE 15.0 mph 26.5 mph 0.01 in Rain Light Rain
10:53 PM 53.1°F 42.1°F 66% 29.59 in 10.0 miles SSE 13.8 mph 25.3 mph 0.01 in Rain Light Rain
11:53 PM 52.0°F 43.0°F 71% 29.59 in 10.0 miles SE 6.9 mph 16.1 mph 0.02 in Rain Light Rain
Moon Phase
Nov. 18 Nov. 20 Nov. 28 Dec. 06 Dec. 13
Sunrise:07:18 AM (PST) Moon Rise:11:44 AM (PST)11/18
Sunset:04:28 PM (PST) Moon Set:10:01 PM (PST)11/18

Copyright © 2014 The Weather Underground, Inc.